Time,TemperatureF,DewpointF,PressureIn,WindDirection,WindDirectionDegrees,WindSpeedMPH,WindSpeedGustMPH,Humidity,HourlyPrecipIn,Conditions,Clouds,dailyrainin,SoftwareType,DateUTC
2013-02-12 00:00:00,28.3,23.8,29.80,East,94,11.0,16.0,83,0.00,,,0.01,WUHU216DAVISVP2,2013-02-12 05:00:00,
2013-02-12 00:05:00,28.3,23.5,29.80,ESE,116,10.0,17.0,82,0.00,,,0.00,WUHU216DAVISVP2,2013-02-12 05:05:00,
2013-02-12 00:10:00,28.2,23.4,29.81,East,86,5.0,17.0,82,0.00,,,0.00,WUHU216DAVISVP2,2013-02-12 05:10:00,
2013-02-12 00:15:00,28.2,23.4,29.81,NE,54,6.0,21.0,82,0.00,,,0.00,WUHU216DAVISVP2,2013-02-12 05:15:00,
2013-02-12 00:20:00,28.1,23.3,29.81,ESE,117,7.0,21.0,82,0.00,,,0.00,WUHU216DAVISVP2,2013-02-12 05:20:00,
2013-02-12 00:25:00,28.1,23.0,29.81,SE,139,10.0,21.0,81,0.00,,,0.00,WUHU216DAVISVP2,2013-02-12 05:25:00,
2013-02-12 00:30:00,28.0,22.9,29.82,East,85,12.0,21.0,81,0.00,,,0.00,WUHU216DAVISVP2,2013-02-12 05:30:00,
2013-02-12 00:35:00,28.0,23.2,29.82,ESE,116,9.0,19.0,82,0.00,,,0.00,WUHU216DAVISVP2,2013-02-12 05:35:00,
2013-02-12 00:40:00,28.0,23.2,29.82,East,91,7.0,19.0,82,0.00,,,0.00,WUHU216DAVISVP2,2013-02-12 05:40:00,
2013-02-12 00:45:00,28.0,22.9,29.82,East,100,9.0,21.0,81,0.00,,,0.00,WUHU216DAVISVP2,2013-02-12 05:45:00,
2013-02-12 00:50:00,28.0,22.9,29.82,East,101,11.0,24.0,81,0.00,,,0.00,WUHU216DAVISVP2,2013-02-12 05:50:00,
2013-02-12 00:55:00,27.9,22.8,29.83,East,98,6.0,24.0,81,0.00,,,0.00,WUHU216DAVISVP2,2013-02-12 05:55:00,
2013-02-12 01:00:00,27.9,22.8,29.83,ENE,72,8.0,24.0,81,0.00,,,0.00,WUHU216DAVISVP2,2013-02-12 06:00:00,
2013-02-12 01:05:00,27.9,22.8,29.83,East,87,8.0,24.0,81,0.00,,,0.00,WUHU216DAVISVP2,2013-02-12 06:05:00,
2013-02-12 01:10:00,27.8,22.7,29.83,ESE,111,8.0,18.0,81,0.00,,,0.00,WUHU216DAVISVP2,2013-02-12 06:10:00,
2013-02-12 01:15:00,27.8,22.7,29.83,ENE,61,7.0,18.0,81,0.00,,,0.00,WUHU216DAVISVP2,2013-02-12 06:15:00,
2013-02-12 01:20:00,27.8,22.7,29.84,ENE,65,15.0,18.0,81,0.00,,,0.00,WUHU216DAVISVP2,2013-02-12 06:20:00,
2013-02-12 01:25:00,27.8,23.0,29.83,East,86,6.0,16.0,82,0.00,,,0.00,WUHU216DAVISVP2,2013-02-12 06:25:00,
2013-02-12 01:30:00,27.8,23.0,29.83,East,85,7.0,18.0,82,0.00,,,0.00,WUHU216DAVISVP2,2013-02-12 06:30:00,
2013-02-12 01:35:00,27.7,22.9,29.83,East,97,8.0,18.0,82,0.00,,,0.00,WUHU216DAVISVP2,2013-02-12 06:35:00,
2013-02-12 01:40:00,27.7,22.9,29.84,ESE,109,8.0,17.0,82,0.00,,,0.00,WUHU216DAVISVP2,2013-02-12 06:40:00,
2013-02-12 01:45:00,27.7,22.9,29.84,ESE,108,5.0,17.0,82,0.00,,,0.00,WUHU216DAVISVP2,2013-02-12 06:45:00,
2013-02-12 01:50:00,27.7,22.9,29.84,ESE,115,5.0,17.0,82,0.00,,,0.00,WUHU216DAVISVP2,2013-02-12 06:50:00,
2013-02-12 01:55:00,27.7,22.9,29.84,ENE,72,8.0,17.0,82,0.00,,,0.00,WUHU216DAVISVP2,2013-02-12 06:55:00,
2013-02-12 02:00:00,27.7,22.9,29.84,ESE,102,5.0,17.0,82,0.00,,,0.00,WUHU216DAVISVP2,2013-02-12 07:00:00,
2013-02-12 02:05:00,27.7,22.9,29.84,East,89,8.0,17.0,82,0.00,,,0.00,WUHU216DAVISVP2,2013-02-12 07:05:00,
2013-02-12 02:10:00,27.7,22.9,29.84,ENE,77,7.0,15.0,82,0.00,,,0.00,WUHU216DAVISVP2,2013-02-12 07:10:00,
2013-02-12 02:15:00,27.7,22.9,29.85,ENE,77,6.0,18.0,82,0.00,,,0.00,WUHU216DAVISVP2,2013-02-12 07:15:00,
2013-02-12 02:20:00,27.7,22.9,29.85,East,82,10.0,18.0,82,0.00,,,0.00,WUHU216DAVISVP2,2013-02-12 07:20:00,
2013-02-12 02:25:00,27.6,22.8,29.85,East,95,10.0,18.0,82,0.00,,,0.00,WUHU216DAVISVP2,2013-02-12 07:25:00,
2013-02-12 02:30:00,27.6,22.5,29.85,East,89,12.0,18.0,81,0.00,,,0.00,WUHU216DAVISVP2,2013-02-12 07:30:00,
2013-02-12 02:35:00,27.6,22.5,29.85,ESE,108,13.0,21.0,81,0.00,,,0.00,WUHU216DAVISVP2,2013-02-12 07:35:00,
2013-02-12 02:40:00,27.5,22.4,29.85,East,79,7.0,21.0,81,0.00,,,0.00,WUHU216DAVISVP2,2013-02-12 07:40:00,
2013-02-12 02:45:00,27.5,22.4,29.86,East,96,11.0,20.0,81,0.00,,,0.00,WUHU216DAVISVP2,2013-02-12 07:45:00,
2013-02-12 02:50:00,27.5,22.4,29.86,East,99,8.0,19.0,81,0.00,,,0.00,WUHU216DAVISVP2,2013-02-12 07:50:00,
2013-02-12 02:55:00,27.5,22.4,29.86,ESE,115,8.0,13.0,81,0.00,,,0.00,WUHU216DAVISVP2,2013-02-12 07:55:00,
2013-02-12 03:00:00,27.4,22.3,29.86,East,90,9.0,13.0,81,0.00,,,0.00,WUHU216DAVISVP2,2013-02-12 08:00:00,
2013-02-12 03:05:00,27.5,22.4,29.86,East,98,9.0,15.0,81,0.00,,,0.00,WUHU216DAVISVP2,2013-02-12 08:05:00,
2013-02-12 03:10:00,27.5,22.4,29.87,East,101,6.0,15.0,81,0.00,,,0.00,WUHU216DAVISVP2,2013-02-12 08:10:00,
2013-02-12 03:15:00,27.5,22.4,29.87,East,91,7.0,15.0,81,0.00,,,0.00,WUHU216DAVISVP2,2013-02-12 08:15:00,
2013-02-12 03:20:00,27.5,22.4,29.87,East,91,7.0,15.0,81,0.00,,,0.00,WUHU216DAVISVP2,2013-02-12 08:20:00,
2013-02-12 03:25:00,27.5,22.4,29.87,East,92,9.0,14.0,81,0.00,,,0.00,WUHU216DAVISVP2,2013-02-12 08:25:00,
2013-02-12 03:30:00,27.6,22.5,29.87,ENE,76,6.0,20.0,81,0.00,,,0.00,WUHU216DAVISVP2,2013-02-12 08:30:00,
2013-02-12 03:35:00,27.6,22.5,29.87,ENE,76,9.0,20.0,81,0.00,,,0.00,WUHU216DAVISVP2,2013-02-12 08:35:00,
2013-02-12 03:40:00,27.6,22.5,29.88,East,82,10.0,19.0,81,0.00,,,0.00,WUHU216DAVISVP2,2013-02-12 08:40:00,
2013-02-12 03:45:00,27.5,22.4,29.88,East,88,9.0,19.0,81,0.00,,,0.00,WUHU216DAVISVP2,2013-02-12 08:45:00,
2013-02-12 03:50:00,27.5,22.4,29.88,East,86,8.0,17.0,81,0.00,,,0.00,WUHU216DAVISVP2,2013-02-12 08:50:00,
2013-02-12 03:55:00,27.5,22.4,29.88,ESE,121,7.0,17.0,81,0.00,,,0.00,WUHU216DAVISVP2,2013-02-12 08:55:00,
2013-02-12 04:00:00,27.5,22.4,29.88,East,91,7.0,18.0,81,0.00,,,0.00,WUHU216DAVISVP2,2013-02-12 09:00:00,
2013-02-12 04:05:00,27.5,22.4,29.88,East,80,5.0,18.0,81,0.00,,,0.00,WUHU216DAVISVP2,2013-02-12 09:05:00,
2013-02-12 04:10:00,27.5,22.4,29.88,ENE,76,8.0,17.0,81,0.00,,,0.00,WUHU216DAVISVP2,2013-02-12 09:10:00,
2013-02-12 04:15:00,27.4,22.6,29.88,ENE,64,8.0,17.0,82,0.00,,,0.00,WUHU216DAVISVP2,2013-02-12 09:15:00,
2013-02-12 04:20:00,27.4,22.3,29.88,East,96,6.0,17.0,81,0.00,,,0.00,WUHU216DAVISVP2,2013-02-12 09:20:00,
2013-02-12 04:25:00,27.4,22.3,29.88,East,82,12.0,17.0,81,0.00,,,0.00,WUHU216DAVISVP2,2013-02-12 09:25:00,
2013-02-12 04:30:00,27.4,22.3,29.88,ENE,64,10.0,16.0,81,0.00,,,0.00,WUHU216DAVISVP2,2013-02-12 09:30:00,
2013-02-12 04:35:00,27.4,22.3,29.89,East,90,9.0,16.0,81,0.00,,,0.00,WUHU216DAVISVP2,2013-02-12 09:35:00,
2013-02-12 04:40:00,27.3,22.2,29.89,East,89,11.0,14.0,81,0.00,,,0.00,WUHU216DAVISVP2,2013-02-12 09:40:00,
2013-02-12 04:45:00,27.4,22.3,29.89,ENE,78,8.0,15.0,81,0.00,,,0.00,WUHU216DAVISVP2,2013-02-12 09:45:00,
2013-02-12 04:50:00,27.3,22.2,29.90,East,101,11.0,17.0,81,0.00,,,0.00,WUHU216DAVISVP2,2013-02-12 09:50:00,
2013-02-12 04:55:00,27.4,22.3,29.90,East,98,10.0,18.0,81,0.00,,,0.00,WUHU216DAVISVP2,2013-02-12 09:55:00,
2013-02-12 05:00:00,27.4,22.3,29.90,East,89,15.0,18.0,81,0.00,,,0.00,WUHU216DAVISVP2,2013-02-12 10:00:00,
2013-02-12 05:05:00,27.4,22.3,29.90,ESE,105,6.0,19.0,81,0.00,,,0.00,WUHU216DAVISVP2,2013-02-12 10:05:00,
2013-02-12 05:10:00,27.4,22.3,29.91,ESE,108,4.0,19.0,81,0.00,,,0.00,WUHU216DAVISVP2,2013-02-12 10:10:00,
2013-02-12 05:15:00,27.4,22.6,29.91,ENE,64,10.0,20.0,82,0.00,,,0.00,WUHU216DAVISVP2,2013-02-12 10:15:00,
2013-02-12 05:20:00,27.4,22.6,29.91,ESE,105,8.0,20.0,82,0.00,,,0.00,WUHU216DAVISVP2,2013-02-12 10:20:00,
2013-02-12 05:25:00,27.4,22.6,29.91,ESE,115,10.0,21.0,82,0.00,,,0.00,WUHU216DAVISVP2,2013-02-12 10:25:00,
2013-02-12 05:30:00,27.4,22.6,29.91,East,89,4.0,21.0,82,0.00,,,0.00,WUHU216DAVISVP2,2013-02-12 10:30:00,
2013-02-12 05:35:00,27.3,22.5,29.91,East,96,7.0,19.0,82,0.00,,,0.00,WUHU216DAVISVP2,2013-02-12 10:35:00,
2013-02-12 05:40:00,27.3,22.5,29.91,ENE,70,9.0,19.0,82,0.00,,,0.00,WUHU216DAVISVP2,2013-02-12 10:40:00,
2013-02-12 05:45:00,27.3,22.5,29.91,East,89,10.0,16.0,82,0.00,,,0.00,WUHU216DAVISVP2,2013-02-12 10:45:00,
2013-02-12 05:50:00,27.3,22.5,29.91,SE,131,7.0,14.0,82,0.00,,,0.00,WUHU216DAVISVP2,2013-02-12 10:50:00,
2013-02-12 05:55:00,27.3,22.5,29.91,East,90,5.0,14.0,82,0.00,,,0.00,WUHU216DAVISVP2,2013-02-12 10:55:00,
2013-02-12 06:00:00,27.3,22.8,29.91,East,90,7.0,13.0,83,0.00,,,0.00,WUHU216DAVISVP2,2013-02-12 11:00:00,
2013-02-12 06:05:00,27.3,22.8,29.92,East,81,11.0,15.0,83,0.00,,,0.00,WUHU216DAVISVP2,2013-02-12 11:05:00,
2013-02-12 06:11:00,27.3,22.8,29.92,ESE,117,8.0,18.0,83,0.00,,,0.00,WUHU216DAVISVP2,2013-02-12 11:11:00,
2013-02-12 06:16:00,27.4,22.9,29.92,East,83,10.0,18.0,83,0.00,,,0.00,WUHU216DAVISVP2,2013-02-12 11:16:00,
2013-02-12 06:21:00,27.4,22.9,29.92,ENE,75,8.0,18.0,83,0.00,,,0.00,WUHU216DAVISVP2,2013-02-12 11:21:00,
2013-02-12 06:26:00,27.4,22.9,29.92,East,97,8.0,18.0,83,0.00,,,0.00,WUHU216DAVISVP2,2013-02-12 11:26:00,
2013-02-12 06:30:00,27.3,22.8,29.93,East,90,9.0,18.0,83,0.00,,,0.00,WUHU216DAVISVP2,2013-02-12 11:30:00,
2013-02-12 06:31:00,27.3,22.8,29.93,East,90,6.0,16.0,83,0.00,,,0.00,WUHU216DAVISVP2,2013-02-12 11:31:00,
2013-02-12 06:36:00,27.3,22.8,29.93,East,84,10.0,16.0,83,0.00,,,0.00,WUHU216DAVISVP2,2013-02-12 11:36:00,
2013-02-12 06:41:00,27.3,22.8,29.92,East,84,7.0,15.0,83,0.00,,,0.00,WUHU216DAVISVP2,2013-02-12 11:41:00,
2013-02-12 06:46:00,27.3,22.8,29.93,ESE,105,12.0,16.0,83,0.00,,,0.00,WUHU216DAVISVP2,2013-02-12 11:46:00,
2013-02-12 06:51:00,27.2,22.7,29.93,ENE,68,6.0,16.0,83,0.00,,,0.00,WUHU216DAVISVP2,2013-02-12 11:51:00,
2013-02-12 06:56:00,27.2,23.0,29.93,ENE,71,5.0,14.0,84,0.00,,,0.00,WUHU216DAVISVP2,2013-02-12 11:56:00,
2013-02-12 07:00:00,27.1,22.9,29.93,East,90,7.0,16.0,84,0.00,,,0.00,WUHU216DAVISVP2,2013-02-12 12:00:00,
2013-02-12 07:01:00,27.1,22.9,29.93,East,81,13.0,14.0,84,0.00,,,0.00,WUHU216DAVISVP2,2013-02-12 12:01:00,
2013-02-12 07:06:00,27.1,22.9,29.93,ENE,67,8.0,14.0,84,0.00,,,0.00,WUHU216DAVISVP2,2013-02-12 12:06:00,
2013-02-12 07:11:00,27.1,23.2,29.93,East,89,4.0,14.0,85,0.00,,,0.00,WUHU216DAVISVP2,2013-02-12 12:11:00,
2013-02-12 07:16:00,27.1,23.2,29.94,ESE,104,14.0,14.0,85,0.00,,,0.00,WUHU216DAVISVP2,2013-02-12 12:16:00,
2013-02-12 07:21:00,27.1,22.9,29.94,ENE,74,7.0,22.0,84,0.00,,,0.00,WUHU216DAVISVP2,2013-02-12 12:21:00,
2013-02-12 07:26:00,27.1,22.9,29.94,East,97,6.0,22.0,84,0.00,,,0.00,WUHU216DAVISVP2,2013-02-12 12:26:00,
2013-02-12 07:30:00,27.1,22.6,29.94,East,90,8.0,22.0,83,0.00,,,0.00,WUHU216DAVISVP2,2013-02-12 12:30:00,
2013-02-12 07:31:00,27.1,22.6,29.94,East,91,11.0,20.0,83,0.00,,,0.00,WUHU216DAVISVP2,2013-02-12 12:31:00,
2013-02-12 07:36:00,27.1,22.6,29.94,East,89,10.0,20.0,83,0.00,,,0.00,WUHU216DAVISVP2,2013-02-12 12:36:00,
2013-02-12 07:41:00,27.1,22.3,29.94,ESE,121,6.0,17.0,82,0.00,,,0.00,WUHU216DAVISVP2,2013-02-12 12:41:00,
2013-02-12 07:46:00,27.2,22.4,29.94,East,84,8.0,21.0,82,0.00,,,0.00,WUHU216DAVISVP2,2013-02-12 12:46:00,
2013-02-12 07:51:00,27.1,22.3,29.94,SE,136,10.0,21.0,82,0.00,,,0.00,WUHU216DAVISVP2,2013-02-12 12:51:00,
2013-02-12 07:56:00,27.1,22.3,29.94,SE,136,8.0,19.0,82,0.00,,,0.00,WUHU216DAVISVP2,2013-02-12 12:56:00,
2013-02-12 08:00:00,27.0,22.2,29.93,East,90,9.0,21.0,82,0.00,,,0.00,WUHU216DAVISVP2,2013-02-12 13:00:00,
2013-02-12 08:01:00,27.0,22.2,29.93,SE,138,9.0,17.0,82,0.00,,,0.00,WUHU216DAVISVP2,2013-02-12 13:01:00,
2013-02-12 08:06:00,27.0,22.5,29.94,East,90,9.0,16.0,83,0.00,,,0.00,WUHU216DAVISVP2,2013-02-12 13:06:00,
2013-02-12 08:11:00,27.0,22.5,29.94,East,81,11.0,16.0,83,0.00,,,0.00,WUHU216DAVISVP2,2013-02-12 13:11:00,
2013-02-12 08:16:00,27.0,22.5,29.94,ENE,63,6.0,15.0,83,0.00,,,0.00,WUHU216DAVISVP2,2013-02-12 13:16:00,
2013-02-12 08:21:00,27.0,22.5,29.94,ENE,70,2.0,14.0,83,0.00,,,0.00,WUHU216DAVISVP2,2013-02-12 13:21:00,
2013-02-12 08:26:00,26.9,22.4,29.94,ENE,68,5.0,10.0,83,0.00,,,0.00,WUHU216DAVISVP2,2013-02-12 13:26:00,
2013-02-12 08:30:00,26.9,22.7,29.94,East,90,6.0,16.0,84,0.00,,,0.00,WUHU216DAVISVP2,2013-02-12 13:30:00,
2013-02-12 08:31:00,26.9,22.4,29.94,East,88,1.0,9.0,83,0.00,,,0.00,WUHU216DAVISVP2,2013-02-12 13:31:00,
2013-02-12 08:36:00,26.9,22.7,29.95,East,94,6.0,9.0,84,0.00,,,0.00,WUHU216DAVISVP2,2013-02-12 13:36:00,
2013-02-12 08:41:00,26.9,22.7,29.95,ESE,117,3.0,9.0,84,0.00,,,0.00,WUHU216DAVISVP2,2013-02-12 13:41:00,
2013-02-12 08:46:00,27.0,22.8,29.95,East,84,5.0,10.0,84,0.00,,,0.00,WUHU216DAVISVP2,2013-02-12 13:46:00,
2013-02-12 08:51:00,26.9,23.0,29.95,East,88,4.0,10.0,85,0.00,,,0.00,WUHU216DAVISVP2,2013-02-12 13:51:00,
2013-02-12 08:56:00,26.9,23.0,29.95,East,98,6.0,9.0,85,0.00,,,0.00,WUHU216DAVISVP2,2013-02-12 13:56:00,
2013-02-12 09:00:00,27.0,23.1,29.95,East,90,4.0,10.0,85,0.00,,,0.00,WUHU216DAVISVP2,2013-02-12 14:00:00,
2013-02-12 09:01:00,27.0,23.1,29.95,ENE,65,5.0,9.0,85,0.00,,,0.00,WUHU216DAVISVP2,2013-02-12 14:01:00,
2013-02-12 09:06:00,26.9,23.0,29.95,ENE,75,13.0,15.0,85,0.00,,,0.00,WUHU216DAVISVP2,2013-02-12 14:06:00,
2013-02-12 09:11:00,26.9,22.7,29.95,East,97,4.0,15.0,84,0.00,,,0.00,WUHU216DAVISVP2,2013-02-12 14:11:00,
2013-02-12 09:16:00,26.9,22.7,29.95,East,89,5.0,15.0,84,0.00,,,0.00,WUHU216DAVISVP2,2013-02-12 14:16:00,
2013-02-12 09:21:00,26.9,22.4,29.95,ENE,63,14.0,14.0,83,0.00,,,0.00,WUHU216DAVISVP2,2013-02-12 14:21:00,
2013-02-12 09:26:00,26.9,22.4,29.95,East,92,9.0,14.0,83,0.00,,,0.00,WUHU216DAVISVP2,2013-02-12 14:26:00,
2013-02-12 09:30:00,26.8,22.0,29.96,East,90,7.0,16.0,82,0.00,,,0.00,WUHU216DAVISVP2,2013-02-12 14:30:00,
2013-02-12 09:31:00,26.8,22.0,29.96,East,87,10.0,15.0,82,0.00,,,0.00,WUHU216DAVISVP2,2013-02-12 14:31:00,
2013-02-12 09:36:00,26.8,22.0,29.95,East,85,8.0,15.0,82,0.00,,,0.00,WUHU216DAVISVP2,2013-02-12 14:36:00,
2013-02-12 09:41:00,26.8,22.0,29.96,East,101,7.0,14.0,82,0.00,,,0.00,WUHU216DAVISVP2,2013-02-12 14:41:00,
2013-02-12 09:46:00,26.8,22.0,29.95,East,82,5.0,14.0,82,0.00,,,0.00,WUHU216DAVISVP2,2013-02-12 14:46:00,
2013-02-12 09:51:00,26.8,22.0,29.95,East,95,4.0,12.0,82,0.00,,,0.00,WUHU216DAVISVP2,2013-02-12 14:51:00,
2013-02-12 09:56:00,26.8,22.3,29.95,East,86,5.0,12.0,83,0.00,,,0.00,WUHU216DAVISVP2,2013-02-12 14:56:00,
2013-02-12 10:00:00,26.9,22.7,29.95,East,90,6.0,14.0,84,0.00,,,0.00,WUHU216DAVISVP2,2013-02-12 15:00:00,
2013-02-12 10:01:00,26.9,22.7,29.95,East,85,8.0,10.0,84,0.00,,,0.00,WUHU216DAVISVP2,2013-02-12 15:01:00,
2013-02-12 10:07:00,26.8,22.3,29.95,ENE,77,3.0,10.0,83,0.00,,,0.00,WUHU216DAVISVP2,2013-02-12 15:07:00,
2013-02-12 10:12:00,26.8,22.6,29.95,East,89,6.0,9.0,84,0.00,,,0.00,WUHU216DAVISVP2,2013-02-12 15:12:00,
2013-02-12 10:17:00,26.8,22.3,29.96,East,87,7.0,9.0,83,0.00,,,0.00,WUHU216DAVISVP2,2013-02-12 15:17:00,
2013-02-12 10:22:00,26.8,22.6,29.96,East,87,7.0,11.0,84,0.00,,,0.00,WUHU216DAVISVP2,2013-02-12 15:22:00,
2013-02-12 10:27:00,26.8,22.6,29.96,ENE,71,7.0,11.0,84,0.00,,,0.00,WUHU216DAVISVP2,2013-02-12 15:27:00,
2013-02-12 10:30:00,26.9,22.7,29.97,East,90,5.0,11.0,84,0.00,,,0.00,WUHU216DAVISVP2,2013-02-12 15:30:00,
2013-02-12 10:32:00,26.9,22.7,29.97,ENE,74,6.0,10.0,84,0.00,,,0.00,WUHU216DAVISVP2,2013-02-12 15:32:00,
2013-02-12 10:38:00,26.9,22.4,29.97,East,101,3.0,10.0,83,0.00,,,0.00,WUHU216DAVISVP2,2013-02-12 15:38:00,
2013-02-12 10:43:00,27.0,22.5,29.97,East,91,8.0,11.0,83,0.00,,,0.00,WUHU216DAVISVP2,2013-02-12 15:43:00,
2013-02-12 10:48:00,27.1,22.9,29.97,East,82,5.0,11.0,84,0.00,,,0.00,WUHU216DAVISVP2,2013-02-12 15:48:00,
2013-02-12 10:53:00,27.1,22.9,29.97,East,88,11.0,12.0,84,0.00,,,0.00,WUHU216DAVISVP2,2013-02-12 15:53:00,
2013-02-12 10:58:00,27.1,22.9,29.97,East,86,4.0,12.0,84,0.00,,,0.00,WUHU216DAVISVP2,2013-02-12 15:58:00,
2013-02-12 11:00:00,27.1,22.9,29.96,East,90,6.0,12.0,84,0.00,,,0.00,WUHU216DAVISVP2,2013-02-12 16:00:00,
2013-02-12 11:03:00,27.1,23.2,29.96,ENE,71,12.0,15.0,85,0.00,,,0.00,WUHU216DAVISVP2,2013-02-12 16:03:00,
2013-02-12 11:08:00,27.1,22.9,29.96,East,80,10.0,17.0,84,0.00,,,0.00,WUHU216DAVISVP2,2013-02-12 16:08:00,
2013-02-12 11:13:00,27.1,22.9,29.96,ENE,63,6.0,17.0,84,0.00,,,0.00,WUHU216DAVISVP2,2013-02-12 16:13:00,
2013-02-12 11:18:00,27.1,22.9,29.95,ENE,77,4.0,15.0,84,0.00,,,0.00,WUHU216DAVISVP2,2013-02-12 16:18:00,
2013-02-12 11:23:00,27.1,22.9,29.95,East,98,8.0,13.0,84,0.00,,,0.00,WUHU216DAVISVP2,2013-02-12 16:23:00,
2013-02-12 11:28:00,27.1,22.6,29.95,ESE,110,5.0,14.0,83,0.00,,,0.00,WUHU216DAVISVP2,2013-02-12 16:28:00,
2013-02-12 11:30:00,27.2,23.0,29.95,East,90,7.0,17.0,84,0.00,,,0.00,WUHU216DAVISVP2,2013-02-12 16:30:00,
2013-02-12 11:33:00,27.2,23.0,29.95,ESE,106,5.0,14.0,84,0.00,,,0.00,WUHU216DAVISVP2,2013-02-12 16:33:00,
2013-02-12 11:38:00,27.3,22.8,29.95,East,86,4.0,12.0,83,0.00,,,0.00,WUHU216DAVISVP2,2013-02-12 16:38:00,
2013-02-12 11:43:00,27.3,22.8,29.95,ENE,73,7.0,13.0,83,0.00,,,0.00,WUHU216DAVISVP2,2013-02-12 16:43:00,
2013-02-12 11:48:00,27.4,23.2,29.95,East,86,5.0,13.0,84,0.00,,,0.00,WUHU216DAVISVP2,2013-02-12 16:48:00,
2013-02-12 11:53:00,27.4,22.9,29.95,East,80,7.0,12.0,83,0.00,,,0.00,WUHU216DAVISVP2,2013-02-12 16:53:00,
2013-02-12 11:58:00,27.4,22.9,29.95,East,87,7.0,12.0,83,0.00,,,0.00,WUHU216DAVISVP2,2013-02-12 16:58:00,
2013-02-12 12:00:00,27.5,23.0,29.95,East,90,6.0,13.0,83,0.00,,,0.00,WUHU216DAVISVP2,2013-02-12 17:00:00,
2013-02-12 12:03:00,27.4,22.9,29.95,East,87,5.0,13.0,83,0.00,,,0.00,WUHU216DAVISVP2,2013-02-12 17:03:00,
2013-02-12 12:08:00,27.6,23.1,29.95,East,79,7.0,13.0,83,0.00,,,0.00,WUHU216DAVISVP2,2013-02-12 17:08:00,
2013-02-12 12:13:00,27.5,23.0,29.95,East,85,4.0,12.0,83,0.00,,,0.00,WUHU216DAVISVP2,2013-02-12 17:13:00,
2013-02-12 12:18:00,27.5,23.0,29.94,ESE,108,5.0,12.0,83,0.00,,,0.00,WUHU216DAVISVP2,2013-02-12 17:18:00,
2013-02-12 12:23:00,27.4,22.6,29.94,ESE,107,7.0,14.0,82,0.00,,,0.00,WUHU216DAVISVP2,2013-02-12 17:23:00,
2013-02-12 12:28:00,27.3,22.8,29.94,East,79,11.0,14.0,83,0.00,,,0.00,WUHU216DAVISVP2,2013-02-12 17:28:00,
2013-02-12 12:30:00,27.2,22.7,29.94,East,90,6.0,14.0,83,0.00,,,0.00,WUHU216DAVISVP2,2013-02-12 17:30:00,
2013-02-12 12:33:00,27.2,22.7,29.94,East,82,7.0,14.0,83,0.00,,,0.00,WUHU216DAVISVP2,2013-02-12 17:33:00,
2013-02-12 12:38:00,27.3,22.8,29.94,ENE,70,8.0,14.0,83,0.00,,,0.00,WUHU216DAVISVP2,2013-02-12 17:38:00,
2013-02-12 12:43:00,27.3,22.8,29.94,East,82,7.0,13.0,83,0.00,,,0.00,WUHU216DAVISVP2,2013-02-12 17:43:00,
2013-02-12 12:48:00,27.2,22.7,29.94,East,95,10.0,12.0,83,0.00,,,0.00,WUHU216DAVISVP2,2013-02-12 17:48:00,
2013-02-12 12:53:00,27.2,23.0,29.94,East,96,9.0,12.0,84,0.00,,,0.00,WUHU216DAVISVP2,2013-02-12 17:53:00,
2013-02-12 12:58:00,27.1,22.9,29.94,NE,54,8.0,16.0,84,0.00,,,0.00,WUHU216DAVISVP2,2013-02-12 17:58:00,
2013-02-12 13:00:00,27.1,22.9,29.94,East,90,7.0,16.0,84,0.00,,,0.00,WUHU216DAVISVP2,2013-02-12 18:00:00,
2013-02-12 13:03:00,27.1,22.9,29.94,East,88,4.0,16.0,84,0.00,,,0.00,WUHU216DAVISVP2,2013-02-12 18:03:00,
2013-02-12 13:08:00,27.1,22.9,29.94,ENE,70,5.0,14.0,84,0.00,,,0.00,WUHU216DAVISVP2,2013-02-12 18:08:00,
2013-02-12 13:13:00,27.3,23.4,29.94,ESE,114,4.0,15.0,85,0.00,,,0.00,WUHU216DAVISVP2,2013-02-12 18:13:00,
2013-02-12 13:18:00,27.3,23.4,29.93,ENE,68,9.0,16.0,85,0.00,,,0.00,WUHU216DAVISVP2,2013-02-12 18:18:00,
2013-02-12 13:23:00,27.4,22.9,29.93,NE,44,14.0,18.0,83,0.00,,,0.00,WUHU216DAVISVP2,2013-02-12 18:23:00,
2013-02-12 13:28:00,27.1,22.6,29.93,East,89,5.0,19.0,83,0.00,,,0.00,WUHU216DAVISVP2,2013-02-12 18:28:00,
2013-02-12 13:30:00,27.2,22.7,29.93,East,90,8.0,19.0,83,0.00,,,0.00,WUHU216DAVISVP2,2013-02-12 18:30:00,
2013-02-12 13:33:00,27.2,23.0,29.92,East,101,9.0,19.0,84,0.00,,,0.00,WUHU216DAVISVP2,2013-02-12 18:33:00,
2013-02-12 13:38:00,27.1,22.6,29.92,East,90,13.0,20.0,83,0.00,,,0.00,WUHU216DAVISVP2,2013-02-12 18:38:00,
2013-02-12 13:43:00,26.8,22.3,29.92,East,82,7.0,20.0,83,0.00,,,0.00,WUHU216DAVISVP2,2013-02-12 18:43:00,
2013-02-12 13:48:00,26.5,22.3,29.92,ENE,71,9.0,19.0,84,0.00,,,0.00,WUHU216DAVISVP2,2013-02-12 18:48:00,
2013-02-12 13:53:00,26.4,22.2,29.92,ENE,72,15.0,20.0,84,0.00,,,0.00,WUHU216DAVISVP2,2013-02-12 18:53:00,
2013-02-12 13:58:00,26.3,22.4,29.91,ESE,108,3.0,20.0,85,0.00,,,0.00,WUHU216DAVISVP2,2013-02-12 18:58:00,
2013-02-12 14:00:00,26.3,22.4,29.91,East,90,10.0,20.0,85,0.00,,,0.00,WUHU216DAVISVP2,2013-02-12 19:00:00,
2013-02-12 14:03:00,26.2,22.3,29.91,East,86,7.0,19.0,85,0.00,,,0.00,WUHU216DAVISVP2,2013-02-12 19:03:00,
2013-02-12 14:08:00,26.1,22.2,29.91,ENE,75,8.0,18.0,85,0.00,,,0.00,WUHU216DAVISVP2,2013-02-12 19:08:00,
2013-02-12 14:13:00,26.1,22.2,29.90,ENE,71,11.0,18.0,85,0.00,,,0.00,WUHU216DAVISVP2,2013-02-12 19:13:00,
2013-02-12 14:18:00,26.0,21.8,29.90,ENE,76,13.0,16.0,84,0.00,,,0.00,WUHU216DAVISVP2,2013-02-12 19:18:00,
2013-02-12 14:23:00,25.9,21.7,29.90,East,85,6.0,16.0,84,0.00,,,0.00,WUHU216DAVISVP2,2013-02-12 19:23:00,
2013-02-12 14:28:00,25.7,21.5,29.90,NE,46,10.0,20.0,84,0.00,,,0.00,WUHU216DAVISVP2,2013-02-12 19:28:00,
2013-02-12 14:30:00,25.7,21.5,29.89,East,90,10.0,20.0,84,0.00,,,0.00,WUHU216DAVISVP2,2013-02-12 19:30:00,
2013-02-12 14:34:00,25.6,21.4,29.89,East,82,7.0,20.0,84,0.00,,,0.00,WUHU216DAVISVP2,2013-02-12 19:34:00,
2013-02-12 14:39:00,25.6,21.7,29.89,East,90,8.0,19.0,85,0.00,,,0.00,WUHU216DAVISVP2,2013-02-12 19:39:00,
2013-02-12 14:44:00,25.6,21.7,29.89,East,89,11.0,19.0,85,0.00,,,0.00,WUHU216DAVISVP2,2013-02-12 19:44:00,
2013-02-12 14:49:00,25.6,21.7,29.89,East,83,11.0,16.0,85,0.00,,,0.00,WUHU216DAVISVP2,2013-02-12 19:49:00,
2013-02-12 14:54:00,25.5,21.6,29.89,NE,49,5.0,15.0,85,0.00,,,0.00,WUHU216DAVISVP2,2013-02-12 19:54:00,
2013-02-12 14:59:00,25.5,21.6,29.89,East,94,10.0,16.0,85,0.00,,,0.00,WUHU216DAVISVP2,2013-02-12 19:59:00,
2013-02-12 15:00:00,25.4,21.5,29.89,East,90,9.0,18.0,85,0.00,,,0.00,WUHU216DAVISVP2,2013-02-12 20:00:00,
2013-02-12 15:04:00,25.5,21.9,29.89,ENE,74,8.0,16.0,86,0.00,,,0.00,WUHU216DAVISVP2,2013-02-12 20:04:00,
2013-02-12 15:09:00,25.5,21.9,29.89,East,83,6.0,15.0,86,0.00,,,0.00,WUHU216DAVISVP2,2013-02-12 20:09:00,
2013-02-12 15:14:00,25.5,21.9,29.89,ENE,76,8.0,15.0,86,0.00,,,0.00,WUHU216DAVISVP2,2013-02-12 20:14:00,
2013-02-12 15:19:00,25.6,22.0,29.88,ENE,63,7.0,13.0,86,0.00,,,0.00,WUHU216DAVISVP2,2013-02-12 20:19:00,
2013-02-12 15:24:00,25.5,21.9,29.89,East,99,11.0,13.0,86,0.00,,,0.00,WUHU216DAVISVP2,2013-02-12 20:24:00,
2013-02-12 15:29:00,25.5,21.9,29.89,ENE,64,7.0,13.0,86,0.00,,,0.00,WUHU216DAVISVP2,2013-02-12 20:29:00,
2013-02-12 15:30:00,25.5,21.9,29.89,ENE,68,8.0,15.0,86,0.00,,,0.00,WUHU216DAVISVP2,2013-02-12 20:30:00,
2013-02-12 15:34:00,25.5,21.9,29.89,East,87,5.0,13.0,86,0.00,,,0.00,WUHU216DAVISVP2,2013-02-12 20:34:00,
2013-02-12 15:39:00,25.6,22.0,29.89,East,89,9.0,14.0,86,0.00,,,0.00,WUHU216DAVISVP2,2013-02-12 20:39:00,
2013-02-12 15:44:00,25.4,21.8,29.89,East,96,6.0,19.0,86,0.00,,,0.00,WUHU216DAVISVP2,2013-02-12 20:44:00,
2013-02-12 15:49:00,25.3,21.9,29.90,East,83,6.0,19.0,87,0.00,,,0.00,WUHU216DAVISVP2,2013-02-12 20:49:00,
2013-02-12 15:54:00,25.2,21.6,29.90,ENE,78,10.0,18.0,86,0.00,,,0.00,WUHU216DAVISVP2,2013-02-12 20:54:00,
2013-02-12 15:59:00,25.2,21.6,29.90,East,95,10.0,16.0,86,0.00,,,0.00,WUHU216DAVISVP2,2013-02-12 20:59:00,
2013-02-12 16:00:00,25.1,21.5,29.90,East,90,8.0,19.0,86,0.00,,,0.00,WUHU216DAVISVP2,2013-02-12 21:00:00,
2013-02-12 16:04:00,25.1,21.5,29.90,East,99,5.0,16.0,86,0.00,,,0.00,WUHU216DAVISVP2,2013-02-12 21:04:00,
2013-02-12 16:09:00,25.1,21.5,29.90,ENE,72,7.0,15.0,86,0.00,,,0.00,WUHU216DAVISVP2,2013-02-12 21:09:00,
2013-02-12 16:14:00,25.1,21.2,29.90,ENE,63,11.0,14.0,85,0.00,,,0.00,WUHU216DAVISVP2,2013-02-12 21:14:00,
2013-02-12 16:19:00,25.0,21.1,29.90,ESE,121,8.0,14.0,85,0.00,,,0.00,WUHU216DAVISVP2,2013-02-12 21:19:00,
2013-02-12 16:24:00,25.0,21.1,29.90,East,82,7.0,13.0,85,0.00,,,0.00,WUHU216DAVISVP2,2013-02-12 21:24:00,
2013-02-12 16:30:00,25.0,21.1,29.90,East,86,9.0,13.0,85,0.00,,,0.00,WUHU216DAVISVP2,2013-02-12 21:30:00,
2013-02-12 16:35:00,24.9,20.7,29.90,East,83,10.0,16.0,84,0.00,,,0.00,WUHU216DAVISVP2,2013-02-12 21:35:00,
2013-02-12 16:40:00,24.9,21.0,29.91,ENE,75,8.0,16.0,85,0.00,,,0.00,WUHU216DAVISVP2,2013-02-12 21:40:00,
2013-02-12 16:45:00,24.9,21.0,29.91,East,85,13.0,14.0,85,0.00,,,0.00,WUHU216DAVISVP2,2013-02-12 21:45:00,
2013-02-12 16:50:00,24.8,20.9,29.91,East,83,10.0,19.0,85,0.00,,,0.00,WUHU216DAVISVP2,2013-02-12 21:50:00,
2013-02-12 16:55:00,24.7,20.8,29.90,East,98,11.0,19.0,85,0.00,,,0.00,WUHU216DAVISVP2,2013-02-12 21:55:00,
2013-02-12 17:00:00,24.7,20.8,29.90,ENE,60,9.0,19.0,85,0.00,,,0.00,WUHU216DAVISVP2,2013-02-12 22:00:00,
2013-02-12 17:05:00,24.7,20.8,29.90,ENE,75,8.0,19.0,85,0.00,,,0.00,WUHU216DAVISVP2,2013-02-12 22:05:00,
2013-02-12 17:10:00,24.7,20.8,29.91,NE,51,6.0,17.0,85,0.00,,,0.00,WUHU216DAVISVP2,2013-02-12 22:10:00,
2013-02-12 17:15:00,24.7,20.8,29.91,East,98,10.0,17.0,85,0.00,,,0.00,WUHU216DAVISVP2,2013-02-12 22:15:00,
2013-02-12 17:20:00,24.7,20.8,29.91,ENE,74,9.0,16.0,85,0.00,,,0.00,WUHU216DAVISVP2,2013-02-12 22:20:00,
2013-02-12 17:25:00,24.7,20.8,29.90,ENE,60,3.0,14.0,85,0.00,,,0.00,WUHU216DAVISVP2,2013-02-12 22:25:00,
2013-02-12 17:30:00,24.6,20.7,29.90,ENE,78,7.0,14.0,85,0.00,,,0.00,WUHU216DAVISVP2,2013-02-12 22:30:00,
2013-02-12 17:35:00,24.5,20.3,29.91,East,92,8.0,15.0,84,0.00,,,0.00,WUHU216DAVISVP2,2013-02-12 22:35:00,
2013-02-12 17:40:00,24.4,20.2,29.91,East,89,5.0,15.0,84,0.00,,,0.00,WUHU216DAVISVP2,2013-02-12 22:40:00,
2013-02-12 17:45:00,24.3,20.1,29.91,ENE,73,6.0,14.0,84,0.00,,,0.00,WUHU216DAVISVP2,2013-02-12 22:45:00,
2013-02-12 17:50:00,24.3,20.1,29.90,East,80,6.0,17.0,84,0.00,,,0.00,WUHU216DAVISVP2,2013-02-12 22:50:00,
2013-02-12 17:55:00,24.2,20.0,29.90,NE,54,7.0,17.0,84,0.00,,,0.00,WUHU216DAVISVP2,2013-02-12 22:55:00,
2013-02-12 18:00:00,24.2,20.0,29.90,ENE,70,7.0,16.0,84,0.00,,,0.00,WUHU216DAVISVP2,2013-02-12 23:00:00,
2013-02-12 18:05:00,24.2,20.0,29.91,ENE,58,7.0,16.0,84,0.00,,,0.00,WUHU216DAVISVP2,2013-02-12 23:05:00,
2013-02-12 18:10:00,24.2,20.0,29.91,East,83,6.0,16.0,84,0.00,,,0.00,WUHU216DAVISVP2,2013-02-12 23:10:00,
2013-02-12 18:15:00,24.2,19.8,29.91,ESE,107,9.0,16.0,83,0.00,,,0.00,WUHU216DAVISVP2,2013-02-12 23:15:00,
2013-02-12 18:20:00,24.2,19.8,29.91,NE,46,8.0,15.0,83,0.00,,,0.00,WUHU216DAVISVP2,2013-02-12 23:20:00,
2013-02-12 18:25:00,24.3,20.1,29.91,ENE,65,8.0,15.0,84,0.00,,,0.00,WUHU216DAVISVP2,2013-02-12 23:25:00,
2013-02-12 18:30:00,24.2,20.1,29.91,East,79,3.0,12.0,84,0.00,,,0.00,WUHU216DAVISVP2,2013-02-12 23:30:00,
2013-02-12 18:35:00,24.2,20.0,29.91,ENE,75,6.0,12.0,84,0.00,,,0.00,WUHU216DAVISVP2,2013-02-12 23:35:00,
2013-02-12 18:40:00,24.2,20.0,29.90,ENE,68,7.0,12.0,84,0.00,,,0.00,WUHU216DAVISVP2,2013-02-12 23:40:00,
2013-02-12 18:45:00,24.2,20.0,29.91,ESE,105,3.0,12.0,84,0.00,,,0.00,WUHU216DAVISVP2,2013-02-12 23:45:00,
2013-02-12 18:50:00,24.2,20.3,29.91,East,100,5.0,12.0,85,0.00,,,0.00,WUHU216DAVISVP2,2013-02-12 23:50:00,
2013-02-12 18:55:00,24.2,20.3,29.91,East,99,5.0,13.0,85,0.00,,,0.00,WUHU216DAVISVP2,2013-02-12 23:55:00,
2013-02-12 19:00:00,24.2,20.3,29.91,East,90,8.0,13.0,85,0.00,,,0.00,WUHU216DAVISVP2,2013-02-13 00:00:00,
2013-02-12 19:05:00,24.3,20.4,29.91,East,89,6.0,11.0,85,0.00,,,0.00,WUHU216DAVISVP2,2013-02-13 00:05:00,
2013-02-12 19:10:00,24.3,20.4,29.91,East,88,5.0,11.0,85,0.00,,,0.00,WUHU216DAVISVP2,2013-02-13 00:10:00,
2013-02-12 19:15:00,24.3,20.4,29.91,East,91,3.0,11.0,85,0.00,,,0.00,WUHU216DAVISVP2,2013-02-13 00:15:00,
2013-02-12 19:20:00,24.3,20.4,29.91,ESE,105,4.0,10.0,85,0.00,,,0.00,WUHU216DAVISVP2,2013-02-13 00:20:00,
2013-02-12 19:25:00,24.3,20.1,29.90,East,89,5.0,11.0,84,0.00,,,0.00,WUHU216DAVISVP2,2013-02-13 00:25:00,
2013-02-12 19:30:00,24.3,20.1,29.90,ENE,57,6.0,11.0,84,0.00,,,0.00,WUHU216DAVISVP2,2013-02-13 00:30:00,
2013-02-12 19:35:00,24.3,20.2,29.90,NE,53,3.0,9.0,84,0.00,,,0.00,WUHU216DAVISVP2,2013-02-13 00:35:00,
2013-02-12 19:40:00,24.4,20.3,29.90,East,82,7.0,11.0,84,0.00,,,0.00,WUHU216DAVISVP2,2013-02-13 00:40:00,
2013-02-12 19:45:00,24.4,20.3,29.90,ENE,70,5.0,11.0,84,0.00,,,0.00,WUHU216DAVISVP2,2013-02-13 00:45:00,
2013-02-12 19:50:00,24.4,20.2,29.90,East,80,5.0,10.0,84,0.00,,,0.00,WUHU216DAVISVP2,2013-02-13 00:50:00,
2013-02-12 19:55:00,24.4,20.2,29.90,NE,40,4.0,10.0,84,0.00,,,0.00,WUHU216DAVISVP2,2013-02-13 00:55:00,
2013-02-12 20:00:00,24.4,20.5,29.90,East,84,6.0,8.0,85,0.00,,,0.00,WUHU216DAVISVP2,2013-02-13 01:00:00,
2013-02-12 20:05:00,24.4,20.5,29.90,ENE,68,2.0,9.0,85,0.00,,,0.00,WUHU216DAVISVP2,2013-02-13 01:05:00,
2013-02-12 20:10:00,24.4,20.5,29.89,East,99,3.0,9.0,85,0.00,,,0.00,WUHU216DAVISVP2,2013-02-13 01:10:00,
2013-02-12 20:15:00,24.4,20.5,29.89,ENE,77,3.0,8.0,85,0.00,,,0.00,WUHU216DAVISVP2,2013-02-13 01:15:00,
2013-02-12 20:20:00,24.4,20.5,29.89,ENE,68,3.0,8.0,85,0.00,,,0.00,WUHU216DAVISVP2,2013-02-13 01:20:00,
2013-02-12 20:25:00,24.4,20.5,29.89,ENE,75,3.0,8.0,85,0.00,,,0.00,WUHU216DAVISVP2,2013-02-13 01:25:00,
2013-02-12 20:30:00,24.4,20.5,29.89,ESE,103,4.0,8.0,85,0.00,,,0.00,WUHU216DAVISVP2,2013-02-13 01:30:00,
2013-02-12 20:36:00,24.5,20.9,29.89,East,85,4.0,7.0,86,0.00,,,0.00,WUHU216DAVISVP2,2013-02-13 01:36:00,
2013-02-12 20:41:00,24.4,20.8,29.89,ENE,72,2.0,7.0,86,0.00,,,0.00,WUHU216DAVISVP2,2013-02-13 01:41:00,
2013-02-12 20:46:00,24.5,20.9,29.89,East,82,2.0,7.0,86,0.00,,,0.00,WUHU216DAVISVP2,2013-02-13 01:46:00,
2013-02-12 20:51:00,24.5,20.9,29.89,East,93,2.0,6.0,86,0.00,,,0.00,WUHU216DAVISVP2,2013-02-13 01:51:00,
2013-02-12 20:56:00,24.5,20.9,29.89,ENE,75,5.0,6.0,86,0.00,,,0.00,WUHU216DAVISVP2,2013-02-13 01:56:00,
2013-02-12 21:00:00,24.5,20.9,29.89,ENE,68,3.0,7.0,86,0.00,,,0.00,WUHU216DAVISVP2,2013-02-13 02:00:00,
2013-02-12 21:01:00,24.4,20.8,29.89,East,84,2.0,6.0,86,0.00,,,0.00,WUHU216DAVISVP2,2013-02-13 02:01:00,
2013-02-12 21:06:00,24.5,20.9,29.88,East,96,3.0,5.0,86,0.00,,,0.00,WUHU216DAVISVP2,2013-02-13 02:06:00,
2013-02-12 21:11:00,24.4,20.8,29.88,ENE,77,1.0,5.0,86,0.00,,,0.00,WUHU216DAVISVP2,2013-02-13 02:11:00,
2013-02-12 21:16:00,24.4,21.0,29.88,ENE,62,2.0,4.0,87,0.00,,,0.00,WUHU216DAVISVP2,2013-02-13 02:16:00,
2013-02-12 21:21:00,24.5,21.1,29.88,ENE,61,2.0,4.0,87,0.00,,,0.00,WUHU216DAVISVP2,2013-02-13 02:21:00,
2013-02-12 21:26:00,24.5,21.1,29.88,East,94,0.0,4.0,87,0.00,,,0.00,WUHU216DAVISVP2,2013-02-13 02:26:00,
2013-02-12 21:30:00,24.5,21.2,29.88,ENE,68,2.0,5.0,87,0.00,,,0.00,WUHU216DAVISVP2,2013-02-13 02:30:00,
2013-02-12 21:31:00,24.5,21.1,29.88,ENE,74,4.0,5.0,87,0.00,,,0.00,WUHU216DAVISVP2,2013-02-13 02:31:00,
2013-02-12 21:36:00,24.6,21.2,29.88,ENE,64,1.0,5.0,87,0.00,,,0.00,WUHU216DAVISVP2,2013-02-13 02:36:00,
2013-02-12 21:41:00,24.6,21.2,29.87,ENE,65,3.0,6.0,87,0.00,,,0.00,WUHU216DAVISVP2,2013-02-13 02:41:00,
2013-02-12 21:47:00,24.7,21.3,29.87,ENE,74,4.0,7.0,87,0.00,,,0.00,WUHU216DAVISVP2,2013-02-13 02:47:00,
2013-02-12 21:52:00,24.9,21.5,29.87,East,86,3.0,11.0,87,0.00,,,0.00,WUHU216DAVISVP2,2013-02-13 02:52:00,
2013-02-12 21:57:00,25.0,21.4,29.87,ENE,64,3.0,11.0,86,0.00,,,0.00,WUHU216DAVISVP2,2013-02-13 02:57:00,
2013-02-12 22:00:00,25.0,21.4,29.87,ENE,68,4.0,11.0,86,0.00,,,0.00,WUHU216DAVISVP2,2013-02-13 03:00:00,
2013-02-12 22:02:00,25.0,21.4,29.87,East,92,7.0,9.0,86,0.00,,,0.00,WUHU216DAVISVP2,2013-02-13 03:02:00,
2013-02-12 22:07:00,25.1,21.5,29.87,ENE,64,2.0,9.0,86,0.00,,,0.00,WUHU216DAVISVP2,2013-02-13 03:07:00,
2013-02-12 22:12:00,25.0,21.4,29.87,East,90,4.0,8.0,86,0.00,,,0.00,WUHU216DAVISVP2,2013-02-13 03:12:00,
2013-02-12 22:17:00,25.1,21.5,29.87,ENE,77,3.0,7.0,86,0.00,,,0.00,WUHU216DAVISVP2,2013-02-13 03:17:00,
2013-02-12 22:22:00,25.1,21.7,29.87,East,93,2.0,7.0,87,0.00,,,0.00,WUHU216DAVISVP2,2013-02-13 03:22:00,
2013-02-12 22:27:00,25.0,21.6,29.86,ENE,76,1.0,5.0,87,0.00,,,0.00,WUHU216DAVISVP2,2013-02-13 03:27:00,
2013-02-12 22:30:00,25.0,21.7,29.86,ENE,68,3.0,8.0,87,0.00,,,0.00,WUHU216DAVISVP2,2013-02-13 03:30:00,
2013-02-12 22:34:00,25.0,21.6,29.87,ENE,75,2.0,4.0,87,0.00,,,0.00,WUHU216DAVISVP2,2013-02-13 03:34:00,
2013-02-12 22:39:00,25.0,21.6,29.86,NE,51,3.0,5.0,87,0.00,,,0.00,WUHU216DAVISVP2,2013-02-13 03:39:00,
2013-02-12 22:45:00,25.0,21.6,29.86,East,86,2.0,5.0,87,0.00,,,0.00,WUHU216DAVISVP2,2013-02-13 03:45:00,
2013-02-12 22:50:00,25.0,21.6,29.86,East,88,1.0,5.0,87,0.00,,,0.00,WUHU216DAVISVP2,2013-02-13 03:50:00,
2013-02-12 22:55:00,25.0,21.6,29.86,ENE,77,1.0,5.0,87,0.00,,,0.00,WUHU216DAVISVP2,2013-02-13 03:55:00,
2013-02-12 23:00:00,25.0,21.6,29.86,ENE,72,2.0,4.0,87,0.00,,,0.00,WUHU216DAVISVP2,2013-02-13 04:00:00,
2013-02-12 23:05:00,25.0,21.6,29.86,NE,53,2.0,4.0,87,0.00,,,0.00,WUHU216DAVISVP2,2013-02-13 04:05:00,
2013-02-12 23:10:00,25.0,21.6,29.86,NE,49,2.0,5.0,87,0.00,,,0.00,WUHU216DAVISVP2,2013-02-13 04:10:00,
2013-02-12 23:15:00,25.0,21.7,29.86,NE,51,3.0,5.0,87,0.00,,,0.00,WUHU216DAVISVP2,2013-02-13 04:15:00,
2013-02-12 23:23:00,25.0,21.6,29.86,ENE,76,0.0,5.0,87,0.00,,,0.00,WUHU216DAVISVP2,2013-02-13 04:23:00,
2013-02-12 23:28:00,25.0,21.9,29.86,ENE,74,3.0,4.0,88,0.00,,,0.00,WUHU216DAVISVP2,2013-02-13 04:28:00,
2013-02-12 23:30:00,25.0,21.9,29.86,NE,45,2.0,5.0,88,0.00,,,0.00,WUHU216DAVISVP2,2013-02-13 04:30:00,
2013-02-12 23:33:00,25.0,21.9,29.86,East,82,2.0,4.0,88,0.00,,,0.00,WUHU216DAVISVP2,2013-02-13 04:33:00,
2013-02-12 23:38:00,25.0,21.9,29.86,East,79,1.0,4.0,88,0.00,,,0.00,WUHU216DAVISVP2,2013-02-13 04:38:00,
2013-02-12 23:43:00,24.9,21.8,29.86,ENE,58,2.0,4.0,88,0.00,,,0.00,WUHU216DAVISVP2,2013-02-13 04:43:00,
2013-02-12 23:49:00,24.9,21.8,29.86,ENE,63,3.0,4.0,88,0.00,,,0.00,WUHU216DAVISVP2,2013-02-13 04:49:00,
2013-02-12 23:54:00,24.9,21.8,29.85,ENE,63,3.0,6.0,88,0.00,,,0.00,WUHU216DAVISVP2,2013-02-13 04:54:00,